Regional Weather Roundup
Issued by NWS

Home | Current Version | Previous Version | Text Only | Print | Product List | Glossary On
Versions: 1 2 3 4 5 6 7 8 9 10 11 12 13 14 15 16 17 18 19 20 21 22 23 24 25 26 27 28 29 30 31 32 33 34 35 36 37 38 39 40 41 42 43 44 45 46 47 48 49 50
293
ASUS43 KOAX 230310
RWRNE

WEATHER ROUNDUP FOR NEBRASKA
NATIONAL WEATHER SERVICE OMAHA NE
900 PM CST MON JAN 22 2018

NOTES: SATELLITE DATA IS BEING USED TO AUGMENT CLOUD COVER ABOVE
       12000 FEET.
       "FAIR" INDICATES FEW OR NO CLOUDS BELOW 12,000 FEET WITH NO
       SIGNIFICANT WEATHER AND/OR OBSTRUCTIONS TO VISIBILITY.


NEZ001>004-019>022-054>056-230400-
NEBRASKA PANHANDLE

CITY           SKY/WX    TMP DP  RH WIND       PRES   REMARKS
SCOTTSBLUFF    CLEAR     22  14  71 NW14      30.08R WCI   9
ALLIANCE       CLEAR     19  11  70 NW10      30.04S WCI   7
CHADRON        PTCLDY    18  12  77 SW10      30.07R WCI   6
GORDON         FAIR      15  10  82 W8        30.01S WCI   4
KIMBALL        PTCLDY    26  12  55 NW15      30.06R WCI  14
SIDNEY         CLEAR     19  12  74 NW17      30.06R WCI   4
$$

NEZ057>060-069>072-079>082-230400-
SOUTHWEST NEBRASKA

CITY           SKY/WX    TMP DP  RH WIND       PRES   REMARKS
NORTH PLATTE   CLEAR     21  12  68 W15       30.03R WCI   8
IMPERIAL       CLEAR     25  16  68 NW16      30.05S WCI  12
LEXINGTON      CLEAR     22  16  78 W13       30.00R WCI  10
MCCOOK         CLEAR     24  16  71 NW15      30.04R WCI  11
OGALLALA       CLEAR     27  16  64 NW14      30.05F WCI  15
$$

NEZ005>010-023>029-035>040-094-230400-
NORTH CENTRAL NEBRASKA

CITY           SKY/WX    TMP DP  RH WIND       PRES   REMARKS
VALENTINE      CLEAR     20  15  81 W12       30.00S WCI   8
AINSWORTH      CLEAR     18  16  93 NW7       29.99R WCI   8
BROKEN BOW     CLEAR     26  18  71 NW21G29   29.96S WCI  12
O`NEILL        CLOUDY    23  22  98 N18       29.97R WCI   9
ORD            PTCLDY    25  20  81 N15       29.95R WCI  13
THEDFORD       CLEAR     21  15  78 W10       30.01R WCI  10
$$

NEZ041-046>049-061>064-073>077-083>087-230400-
SOUTH CENTRAL NEBRASKA

CITY           SKY/WX    TMP DP  RH WIND       PRES   REMARKS
GRAND ISLAND   CLEAR     24  21  88 N21       29.93R WCI   9
AURORA         CLOUDY    23  21  93 N21       29.92R WCI   8
HASTINGS       CLOUDY    26  20  77 NW21G28   29.93R WCI  12
HEBRON         CLOUDY    28  23  82 N15G21    29.93R WCI  16
HOLDREGE       CLEAR     26  22  82 NW12      29.97R WCI  16
KEARNEY        CLOUDY    26  21  81 NW14      29.96R WCI  14
YORK           LGT SNOW  25  25 100 N16G26    29.91R WCI  12
$$

NEZ011>018-030>034-042>045-230400-
NORTHEAST NEBRASKA

CITY           SKY/WX    TMP DP  RH WIND       PRES   REMARKS
NORFOLK        CLOUDY    24  21  88 N21G32    29.90R BLWGSNOWWCI   9
ALBION         LGT SNOW  25  22  88 N26G33    29.93R WCI   9
BLAIR          CLOUDY    29  27  90 NW24G39   29.79R WCI  15
COLUMBUS       LGT SNOW  23  22  96 NW24G35   29.90R FOG     WCI   7
FREMONT          N/A    N/A N/A N/A MISG        N/A
TEKAMAH        LGT SNOW  29  28  96 NW31G39   29.83R FOG     WCI  13
WAYNE            N/A     26  25  96 N28G33    29.87R WCI  10
$$

NEZ050>053-065>068-078-088>093-230400-
SOUTHEAST NEBRASKA

CITY           SKY/WX    TMP DP  RH WIND       PRES   REMARKS
LINCOLN        CLOUDY    26  22  84 NW22G36   29.88R WCI  12
OMAHA EPPLEY   LGT SNOW  30  27  88 NW26G37   29.81R BLWGSNOWWCI  16
BEATRICE       CLOUDY    28  25  89 NW25G35   29.89R WCI  13
FALLS CITY     FLURRIES  29  25  85 NW25G36   29.77R WCI  14
NEBRASKA CITY  LGT SNOW  29  29 100 NW25G32   29.79R WCI  15
PLATTSMOUTH    LGT SNOW  30  28  92 NW25G33   29.78R WCI  16
$$

NEZ044-045-051>053-067-230400-
OMAHA AREA

CITY           SKY/WX    TMP DP  RH WIND       PRES   REMARKS
OMAHA EPPLEY   LGT SNOW  30  27  88 NW26G37   29.81R BLWGSNOWWCI  16
BLAIR          CLOUDY    29  27  90 NW24G39   29.79R WCI  15
FREMONT          N/A    N/A N/A N/A MISG        N/A
MILLARD        CLOUDY    31  28  86 NW20G29   29.82R FOG     WCI  19
OFFUTT AFB     FLURRIES  30  26  85 NW20G29   29.79R WCI  17
PLATTSMOUTH    LGT SNOW  30  28  92 NW25G33   29.78R WCI  16
WAHOO          CLOUDY    28  25  90 NW26G35   29.85R WCI  13
$$




USA.gov is the U.S. government's official web portal to all federal, state and local government web resources and services.